Year,Month,Day,Hour,Minute,Value (Times are PST for temperature in C)
2009,07,17,00,00,18.20
2009,07,17,00,01,18.20
2009,07,17,00,02,18.20
2009,07,17,00,03,18.20
2009,07,17,00,04,18.20
2009,07,17,00,05,18.20
2009,07,17,00,06,18.20
2009,07,17,00,07,18.20
2009,07,17,00,08,18.20
2009,07,17,00,09,18.20
2009,07,17,00,10,18.20
2009,07,17,00,11,18.20
2009,07,17,00,12,18.20
2009,07,17,00,18,18.10
2009,07,17,00,19,18.10
2009,07,17,00,20,18.20
2009,07,17,00,21,18.30
2009,07,17,00,22,18.30
2009,07,17,00,23,18.40
2009,07,17,00,24,18.50
2009,07,17,00,25,18.70
2009,07,17,00,26,18.70
2009,07,17,00,27,18.80
2009,07,17,00,28,18.90
2009,07,17,00,29,19.00
2009,07,17,00,30,19.00
2009,07,17,00,31,19.10
2009,07,17,00,32,19.10
2009,07,17,00,33,19.10
2009,07,17,00,34,19.10
2009,07,17,00,35,19.10
2009,07,17,00,36,19.10
2009,07,17,00,37,19.10
2009,07,17,00,38,19.20
2009,07,17,00,39,19.10
2009,07,17,00,40,19.10
2009,07,17,00,41,19.10
2009,07,17,00,42,19.10
2009,07,17,00,43,19.10
2009,07,17,00,44,19.10
2009,07,17,00,45,19.10
2009,07,17,00,46,19.10
2009,07,17,00,47,19.10
2009,07,17,00,48,19.00
2009,07,17,00,49,19.00
2009,07,17,00,50,19.00
2009,07,17,00,51,19.00
2009,07,17,00,52,19.00
2009,07,17,00,53,18.90
2009,07,17,00,54,18.90
2009,07,17,00,55,18.90
2009,07,17,00,56,18.90
2009,07,17,00,57,18.90
2009,07,17,00,58,18.90
2009,07,17,00,59,18.90
2009,07,17,01,00,18.90
2009,07,17,01,01,18.80
2009,07,17,01,02,18.80
2009,07,17,01,03,18.80
2009,07,17,01,04,18.80
2009,07,17,01,05,18.80
2009,07,17,01,06,18.80
2009,07,17,01,07,18.80
2009,07,17,01,08,18.80
2009,07,17,01,09,18.80
2009,07,17,01,10,18.80
2009,07,17,01,11,18.80
2009,07,17,01,12,18.80
2009,07,17,01,13,18.80
2009,07,17,01,14,18.70
2009,07,17,01,15,18.70
2009,07,17,01,16,18.70
2009,07,17,01,17,18.70
2009,07,17,01,18,18.60
2009,07,17,01,19,18.60
2009,07,17,01,20,18.60
2009,07,17,01,21,18.60
2009,07,17,01,22,18.60
2009,07,17,01,23,18.50
2009,07,17,01,24,18.50
2009,07,17,01,25,18.50
2009,07,17,01,26,18.50
2009,07,17,01,27,18.40
2009,07,17,01,28,18.40
2009,07,17,01,29,18.40
2009,07,17,01,30,18.30
2009,07,17,01,31,18.30
2009,07,17,01,32,18.30
2009,07,17,01,33,18.20
2009,07,17,01,34,18.20
2009,07,17,01,35,18.10
2009,07,17,01,36,18.10
2009,07,17,01,37,18.00
2009,07,17,01,38,17.90
2009,07,17,01,39,17.90
2009,07,17,01,40,17.80
2009,07,17,01,41,17.80
2009,07,17,01,42,17.80
2009,07,17,01,43,17.70
2009,07,17,01,44,17.70
2009,07,17,01,45,17.70
2009,07,17,01,46,17.60
2009,07,17,01,47,17.60
2009,07,17,01,48,17.60
2009,07,17,01,49,17.50
2009,07,17,01,50,17.50
2009,07,17,01,51,17.40
2009,07,17,01,52,17.30
2009,07,17,01,53,17.30
2009,07,17,01,54,17.30
2009,07,17,01,55,17.20
2009,07,17,01,56,17.20
2009,07,17,01,57,17.20
2009,07,17,01,58,17.20
2009,07,17,01,59,17.20
2009,07,17,02,00,17.20
2009,07,17,02,01,17.10
2009,07,17,02,02,17.10
2009,07,17,02,03,17.10
2009,07,17,02,04,17.10
2009,07,17,02,05,17.00
2009,07,17,02,06,17.00
2009,07,17,02,07,17.00
2009,07,17,02,08,16.90
2009,07,17,02,09,16.90
2009,07,17,02,10,16.90
2009,07,17,02,11,16.90
2009,07,17,02,12,16.90
2009,07,17,02,13,16.90
2009,07,17,02,14,16.80
2009,07,17,02,15,16.80
2009,07,17,02,16,16.80
2009,07,17,02,17,16.80
2009,07,17,02,18,16.80
2009,07,17,02,19,16.80
2009,07,17,02,20,16.80
2009,07,17,02,21,16.70
2009,07,17,02,22,16.70
2009,07,17,02,23,16.70
2009,07,17,02,24,16.70
2009,07,17,02,25,16.60
2009,07,17,02,26,16.60
2009,07,17,02,27,16.60
2009,07,17,02,28,16.60
2009,07,17,02,29,16.50
2009,07,17,02,30,16.50
2009,07,17,02,31,16.50
2009,07,17,02,32,16.40
2009,07,17,02,33,16.40
2009,07,17,02,34,16.40
2009,07,17,02,35,16.40
2009,07,17,02,36,16.30
2009,07,17,02,37,16.30
2009,07,17,02,38,16.30
2009,07,17,02,39,16.30
2009,07,17,02,40,16.20
2009,07,17,02,41,16.20
2009,07,17,02,42,16.20
2009,07,17,02,43,16.20
2009,07,17,02,44,16.20
2009,07,17,02,45,16.10
2009,07,17,02,46,16.10
2009,07,17,02,47,16.10
2009,07,17,02,48,16.10
2009,07,17,02,49,16.10
2009,07,17,02,50,16.00
2009,07,17,02,51,16.00
2009,07,17,02,52,15.90
2009,07,17,02,53,15.90
2009,07,17,02,54,15.80
2009,07,17,02,55,15.80
2009,07,17,02,56,15.70
2009,07,17,02,57,15.70
2009,07,17,02,58,15.60
2009,07,17,02,59,15.60
2009,07,17,03,00,15.60
2009,07,17,03,01,15.50
2009,07,17,03,02,15.50
2009,07,17,03,03,15.40
2009,07,17,03,04,15.40
2009,07,17,03,05,15.40
2009,07,17,03,06,15.40
2009,07,17,03,07,15.40
2009,07,17,03,08,15.40
2009,07,17,03,09,15.40
2009,07,17,03,10,15.40
2009,07,17,03,11,15.40
2009,07,17,03,12,15.30
2009,07,17,03,13,15.30
2009,07,17,03,14,15.30
2009,07,17,03,15,15.20
2009,07,17,03,16,15.20
2009,07,17,03,17,15.20
2009,07,17,03,18,15.10
2009,07,17,03,19,15.00
2009,07,17,03,20,15.00
2009,07,17,03,21,15.00
2009,07,17,03,22,15.00
2009,07,17,03,23,15.00
2009,07,17,03,24,15.00
2009,07,17,03,25,15.00
2009,07,17,03,26,15.00
2009,07,17,03,27,14.90
2009,07,17,03,28,14.90
2009,07,17,03,29,14.80
2009,07,17,03,30,14.80
2009,07,17,03,31,14.80
2009,07,17,03,32,14.80
2009,07,17,03,33,14.80
2009,07,17,03,34,14.80
2009,07,17,03,35,14.80
2009,07,17,03,36,14.80
2009,07,17,03,37,14.70
2009,07,17,03,38,14.70
2009,07,17,03,39,14.70
2009,07,17,03,40,14.70
2009,07,17,03,41,14.70
2009,07,17,03,42,14.70
2009,07,17,03,43,14.70
2009,07,17,03,44,14.70
2009,07,17,03,45,14.70
2009,07,17,03,46,14.60
2009,07,17,03,47,14.60
2009,07,17,03,48,14.60
2009,07,17,03,49,14.60
2009,07,17,03,50,14.60
2009,07,17,03,51,14.60
2009,07,17,03,52,14.60
2009,07,17,03,53,14.50
2009,07,17,03,54,14.50
2009,07,17,03,55,14.50
2009,07,17,03,56,14.50
2009,07,17,03,57,14.50
2009,07,17,03,58,14.50
2009,07,17,03,59,14.40
2009,07,17,04,00,14.40
2009,07,17,04,01,14.40
2009,07,17,04,02,14.30
2009,07,17,04,03,14.30
2009,07,17,04,04,14.30
2009,07,17,04,05,14.30
2009,07,17,04,06,14.30
2009,07,17,04,07,14.20
2009,07,17,04,08,14.20
2009,07,17,04,09,14.20
2009,07,17,04,10,14.20
2009,07,17,04,11,14.20
2009,07,17,04,12,14.20
2009,07,17,04,13,14.20
2009,07,17,04,14,14.20
2009,07,17,04,15,14.20
2009,07,17,04,16,14.20
2009,07,17,04,17,14.20
2009,07,17,04,18,14.20
2009,07,17,04,19,14.10
2009,07,17,04,20,14.10
2009,07,17,04,21,14.10
2009,07,17,04,22,14.10
2009,07,17,04,23,14.10
2009,07,17,04,24,14.00
2009,07,17,04,25,14.00
2009,07,17,04,26,13.90
2009,07,17,04,27,13.90
2009,07,17,04,28,13.90
2009,07,17,04,29,13.90
2009,07,17,04,30,13.90
2009,07,17,04,31,13.90
2009,07,17,04,32,13.90
2009,07,17,04,33,14.00
2009,07,17,04,34,14.00
2009,07,17,04,35,14.00
2009,07,17,04,36,14.00
2009,07,17,04,37,14.00
2009,07,17,04,38,14.00
2009,07,17,04,39,14.10
2009,07,17,04,40,14.10
2009,07,17,04,41,14.10
2009,07,17,04,42,14.10
2009,07,17,04,43,14.00
2009,07,17,04,44,14.00
2009,07,17,04,45,14.00
2009,07,17,04,46,14.00
2009,07,17,04,47,14.00
2009,07,17,04,48,14.00
2009,07,17,04,49,13.90
2009,07,17,04,50,13.90
2009,07,17,04,51,13.90
2009,07,17,04,52,13.90
2009,07,17,04,53,13.80
2009,07,17,04,54,13.80
2009,07,17,04,55,13.80
2009,07,17,04,56,13.80
2009,07,17,04,57,13.70
2009,07,17,04,58,13.70
2009,07,17,04,59,13.80
2009,07,17,05,00,13.80
2009,07,17,05,01,13.80
2009,07,17,05,02,13.80
2009,07,17,05,03,13.80
2009,07,17,05,04,13.80
2009,07,17,05,05,13.80
2009,07,17,05,06,13.70
2009,07,17,05,07,13.70
2009,07,17,05,08,13.70
2009,07,17,05,09,13.60
2009,07,17,05,10,13.60
2009,07,17,05,11,13.50
2009,07,17,05,12,13.50
2009,07,17,05,13,13.50
2009,07,17,05,14,13.50
2009,07,17,05,15,13.50
2009,07,17,05,16,13.40
2009,07,17,05,17,13.40
2009,07,17,05,18,13.40
2009,07,17,05,19,13.40
2009,07,17,05,20,13.40
2009,07,17,05,21,13.40
2009,07,17,05,22,13.30
2009,07,17,05,23,13.30
2009,07,17,05,24,13.30
2009,07,17,05,25,13.30
2009,07,17,05,26,13.20
2009,07,17,05,27,13.20
2009,07,17,05,28,13.20
2009,07,17,05,29,13.20
2009,07,17,05,30,13.20
2009,07,17,05,31,13.10
2009,07,17,05,32,13.10
2009,07,17,05,33,13.10
2009,07,17,05,34,13.10
2009,07,17,05,35,13.10
2009,07,17,05,36,13.10
2009,07,17,05,37,13.00
2009,07,17,05,38,13.00
2009,07,17,05,39,13.00
2009,07,17,05,40,13.00
2009,07,17,05,41,13.00
2009,07,17,05,42,12.90
2009,07,17,05,43,12.90
2009,07,17,05,44,12.90
2009,07,17,05,45,12.90
2009,07,17,05,46,12.90
2009,07,17,05,47,12.90
2009,07,17,05,48,12.90
2009,07,17,05,49,12.90
2009,07,17,05,50,12.90
2009,07,17,05,51,12.90
2009,07,17,05,52,12.90
2009,07,17,05,53,12.90
2009,07,17,05,54,12.90
2009,07,17,05,55,12.90
2009,07,17,05,56,12.90
2009,07,17,05,57,12.90
2009,07,17,05,58,12.90
2009,07,17,05,59,12.90
2009,07,17,06,00,12.90
2009,07,17,06,01,12.90
2009,07,17,06,02,12.90
2009,07,17,06,03,12.90
2009,07,17,06,04,12.90
2009,07,17,06,05,12.90
2009,07,17,06,06,12.90
2009,07,17,06,07,12.90
2009,07,17,06,08,12.90
2009,07,17,06,09,12.90
2009,07,17,06,10,12.90
2009,07,17,06,11,13.00
2009,07,17,06,12,13.00
2009,07,17,06,13,13.00
2009,07,17,06,14,13.00
2009,07,17,06,15,13.00
2009,07,17,06,16,13.00
2009,07,17,06,17,13.00
2009,07,17,06,18,13.10
2009,07,17,06,19,13.10
2009,07,17,06,20,13.10
2009,07,17,06,21,13.10
2009,07,17,06,22,13.10
2009,07,17,06,23,13.10
2009,07,17,06,24,13.10
2009,07,17,06,25,13.20
2009,07,17,06,26,13.20
2009,07,17,06,27,13.20
2009,07,17,06,28,13.20
2009,07,17,06,29,13.30
2009,07,17,06,30,13.30
2009,07,17,06,31,13.30
2009,07,17,06,32,13.30
2009,07,17,06,33,13.40
2009,07,17,06,34,13.40
2009,07,17,06,35,13.40
2009,07,17,06,36,13.40
2009,07,17,06,37,13.50
2009,07,17,06,38,13.50
2009,07,17,06,39,13.50
2009,07,17,06,40,13.50
2009,07,17,06,41,13.60
2009,07,17,06,42,13.60
2009,07,17,06,43,13.60
2009,07,17,06,44,13.60
2009,07,17,06,45,13.60
2009,07,17,06,46,13.70
2009,07,17,06,47,13.70
2009,07,17,06,48,13.80
2009,07,17,06,49,13.80
2009,07,17,06,50,13.80
2009,07,17,06,51,13.90
2009,07,17,06,52,14.00
2009,07,17,06,53,14.00
2009,07,17,06,54,14.10
2009,07,17,06,55,14.10
2009,07,17,06,56,14.20
2009,07,17,06,57,14.30
2009,07,17,06,58,14.40
2009,07,17,06,59,14.40
2009,07,17,07,00,14.50
2009,07,17,07,01,14.60
2009,07,17,07,02,14.60
2009,07,17,07,03,14.70
2009,07,17,07,04,14.80
2009,07,17,07,05,14.90
2009,07,17,07,06,14.90
2009,07,17,07,07,15.00
2009,07,17,07,08,15.00
2009,07,17,07,09,15.00
2009,07,17,07,10,15.00
2009,07,17,07,11,15.00
2009,07,17,07,12,15.00
2009,07,17,07,13,15.10
2009,07,17,07,14,15.20
2009,07,17,07,15,15.30
2009,07,17,07,16,15.40
2009,07,17,07,17,15.40
2009,07,17,07,18,15.50
2009,07,17,07,19,15.60
2009,07,17,07,20,15.60
2009,07,17,07,21,15.70
2009,07,17,07,22,15.80
2009,07,17,07,23,15.80
2009,07,17,07,24,16.00
2009,07,17,07,25,16.00
2009,07,17,07,26,16.10
2009,07,17,07,27,16.20
2009,07,17,07,28,16.30
2009,07,17,07,29,16.50
2009,07,17,07,30,16.60
2009,07,17,07,31,16.70
2009,07,17,07,32,16.80
2009,07,17,07,33,17.00
2009,07,17,07,34,17.10
2009,07,17,07,35,17.20
2009,07,17,07,36,17.30
2009,07,17,07,37,17.50
2009,07,17,07,38,17.60
2009,07,17,07,39,17.70
2009,07,17,07,40,17.80
2009,07,17,07,41,17.90
2009,07,17,07,42,18.00
2009,07,17,07,43,18.10
2009,07,17,07,44,18.20
2009,07,17,07,45,18.30
2009,07,17,07,46,18.30
2009,07,17,07,47,18.40
2009,07,17,07,48,18.50
2009,07,17,07,49,18.60
2009,07,17,07,50,18.70
2009,07,17,07,51,18.70
2009,07,17,07,52,18.80
2009,07,17,07,53,18.90
2009,07,17,07,54,18.90
2009,07,17,07,55,19.00
2009,07,17,07,56,19.10
2009,07,17,07,57,19.20
2009,07,17,07,58,19.20
2009,07,17,07,59,19.30
2009,07,17,08,00,19.30
2009,07,17,08,01,19.40
2009,07,17,08,02,19.40
2009,07,17,08,03,19.50
2009,07,17,08,04,19.60
2009,07,17,08,05,19.60
2009,07,17,08,06,19.60
2009,07,17,08,07,19.60
2009,07,17,08,08,19.70
2009,07,17,08,09,19.70
2009,07,17,08,10,19.70
2009,07,17,08,11,19.80
2009,07,17,08,12,19.90
2009,07,17,08,13,19.90
2009,07,17,08,14,20.00
2009,07,17,08,15,20.10
2009,07,17,08,16,20.20
2009,07,17,08,17,20.30
2009,07,17,08,18,20.40
2009,07,17,08,19,20.50
2009,07,17,08,20,20.50
2009,07,17,08,21,20.60
2009,07,17,08,22,20.70
2009,07,17,08,23,20.70
2009,07,17,08,24,20.80
2009,07,17,08,25,20.80
2009,07,17,08,26,20.80
2009,07,17,08,27,20.80
2009,07,17,08,28,20.80
2009,07,17,08,29,20.90
2009,07,17,08,30,20.90
2009,07,17,08,31,21.00
2009,07,17,08,32,21.10
2009,07,17,08,33,21.10
2009,07,17,08,34,21.20
2009,07,17,08,35,21.20
2009,07,17,08,36,21.30
2009,07,17,08,37,21.40
2009,07,17,08,38,21.50
2009,07,17,08,39,21.60
2009,07,17,08,40,21.70
2009,07,17,08,41,21.70
2009,07,17,08,42,21.70
2009,07,17,08,43,21.80
2009,07,17,08,44,21.80
2009,07,17,08,45,21.80
2009,07,17,08,46,21.80
2009,07,17,08,47,21.80
2009,07,17,08,48,21.90
2009,07,17,08,49,22.00
2009,07,17,08,50,22.10
2009,07,17,08,51,22.20
2009,07,17,08,52,22.20
2009,07,17,08,53,22.30
2009,07,17,08,54,22.30
2009,07,17,08,55,22.30
2009,07,17,08,56,22.40
2009,07,17,08,57,22.40
2009,07,17,08,58,22.50
2009,07,17,08,59,22.60
2009,07,17,09,00,22.70
2009,07,17,09,01,22.80
2009,07,17,09,02,22.90
2009,07,17,09,03,23.00
2009,07,17,09,04,23.10
2009,07,17,09,05,23.10
2009,07,17,09,06,23.20
2009,07,17,09,07,23.20
2009,07,17,09,08,23.30
2009,07,17,09,09,23.40
2009,07,17,09,10,23.50
2009,07,17,09,11,23.60
2009,07,17,09,12,23.70
2009,07,17,09,13,23.80
2009,07,17,09,14,23.80
2009,07,17,09,15,23.90
2009,07,17,09,16,24.00
2009,07,17,09,17,24.00
2009,07,17,09,18,24.10
2009,07,17,09,19,24.10
2009,07,17,09,20,24.20
2009,07,17,09,21,24.20
2009,07,17,09,22,24.30
2009,07,17,09,23,24.40
2009,07,17,09,24,24.50
2009,07,17,09,25,24.60
2009,07,17,09,26,24.70
2009,07,17,09,27,24.80
2009,07,17,09,28,24.90
2009,07,17,09,29,24.90
2009,07,17,09,30,25.00
2009,07,17,09,31,25.10
2009,07,17,09,32,25.10
2009,07,17,09,33,25.00
2009,07,17,09,34,24.90
2009,07,17,09,35,24.80
2009,07,17,09,36,24.70
2009,07,17,09,37,24.60
2009,07,17,09,38,24.50
2009,07,17,09,39,24.30
2009,07,17,09,40,24.20
2009,07,17,09,41,24.00
2009,07,17,09,42,23.80
2009,07,17,09,43,23.70
2009,07,17,09,44,23.70
2009,07,17,09,45,23.70
2009,07,17,09,46,23.60
2009,07,17,09,47,23.70
2009,07,17,09,48,23.70
2009,07,17,09,49,23.70
2009,07,17,09,50,23.70
2009,07,17,09,51,23.80
2009,07,17,09,52,23.70
2009,07,17,09,53,23.60
2009,07,17,09,54,23.60
2009,07,17,09,55,23.60
2009,07,17,09,56,23.60
2009,07,17,09,57,23.60
2009,07,17,09,58,23.60
2009,07,17,09,59,23.50
2009,07,17,10,00,23.40
2009,07,17,10,01,23.40
2009,07,17,10,02,23.30
2009,07,17,10,03,23.30
2009,07,17,10,04,23.30
2009,07,17,10,05,23.30
2009,07,17,10,06,23.30
2009,07,17,10,07,23.40
2009,07,17,10,08,23.40
2009,07,17,10,09,23.50
2009,07,17,10,10,23.50
2009,07,17,10,11,23.60
2009,07,17,10,12,23.60
2009,07,17,10,13,23.70
2009,07,17,10,14,23.80
2009,07,17,10,15,23.80
2009,07,17,10,16,23.80
2009,07,17,10,17,23.80
2009,07,17,10,18,23.80
2009,07,17,10,19,23.80
2009,07,17,10,20,23.80
2009,07,17,10,21,23.80
2009,07,17,10,22,23.80
2009,07,17,10,23,23.70
2009,07,17,10,24,23.70
2009,07,17,10,25,23.70
2009,07,17,10,26,23.70
2009,07,17,10,27,23.70
2009,07,17,10,28,23.70
2009,07,17,10,29,23.70
2009,07,17,10,30,23.70
2009,07,17,10,31,23.80
2009,07,17,10,32,23.70
2009,07,17,10,33,23.70
2009,07,17,10,34,23.70
2009,07,17,10,35,23.70
2009,07,17,10,36,23.70
2009,07,17,10,37,23.70
2009,07,17,10,38,23.80
2009,07,17,10,39,23.80
2009,07,17,10,40,23.90
2009,07,17,10,41,24.00
2009,07,17,10,42,24.10
2009,07,17,10,43,24.20
2009,07,17,10,44,24.20
2009,07,17,10,45,24.20
2009,07,17,10,46,24.20
2009,07,17,10,47,24.20
2009,07,17,10,48,24.20
2009,07,17,10,49,24.30
2009,07,17,10,50,24.30
2009,07,17,10,51,24.30
2009,07,17,10,52,24.30
2009,07,17,10,53,24.30
2009,07,17,10,54,24.40
2009,07,17,10,55,24.50
2009,07,17,10,56,24.60
2009,07,17,10,57,24.70
2009,07,17,10,58,24.70
2009,07,17,10,59,24.80
2009,07,17,11,00,24.90
2009,07,17,11,01,25.10
2009,07,17,11,02,25.20
2009,07,17,11,03,25.40
2009,07,17,11,04,25.50
2009,07,17,11,05,25.70
2009,07,17,11,06,25.70
2009,07,17,11,07,25.70
2009,07,17,11,08,25.70
2009,07,17,11,09,25.70
2009,07,17,11,10,25.60
2009,07,17,11,11,25.50
2009,07,17,11,12,25.40
2009,07,17,11,13,25.40
2009,07,17,11,14,25.30
2009,07,17,11,15,25.00
2009,07,17,11,16,24.90
2009,07,17,11,17,24.80
2009,07,17,11,18,24.80
2009,07,17,11,19,24.90
2009,07,17,11,20,25.00
2009,07,17,11,21,25.10
2009,07,17,11,22,25.20
2009,07,17,11,23,25.30
2009,07,17,11,24,25.20
2009,07,17,11,25,25.10
2009,07,17,11,26,25.10
2009,07,17,11,27,25.10
2009,07,17,11,28,25.10
2009,07,17,11,29,25.10
2009,07,17,11,30,25.00
2009,07,17,11,31,25.00
2009,07,17,11,32,25.10
2009,07,17,11,33,25.10
2009,07,17,11,34,25.20
2009,07,17,11,35,25.20
2009,07,17,11,36,25.20
2009,07,17,11,37,25.30
2009,07,17,11,38,25.30
2009,07,17,11,39,25.30
2009,07,17,11,40,25.20
2009,07,17,11,41,25.10
2009,07,17,11,42,25.20
2009,07,17,11,43,25.30
2009,07,17,11,44,25.20
2009,07,17,11,45,25.10
2009,07,17,11,46,25.10
2009,07,17,11,47,25.20
2009,07,17,11,48,25.20
2009,07,17,11,49,25.20
2009,07,17,11,50,25.30
2009,07,17,11,51,25.30
2009,07,17,11,52,25.40
2009,07,17,11,53,25.40
2009,07,17,11,54,25.40
2009,07,17,11,55,25.40
2009,07,17,11,56,25.30
2009,07,17,11,57,25.20
2009,07,17,11,58,25.20
2009,07,17,11,59,25.20
2009,07,17,12,00,25.20
2009,07,17,12,01,25.40
2009,07,17,12,02,25.40
2009,07,17,12,03,25.50
2009,07,17,12,04,25.50
2009,07,17,12,05,25.60
2009,07,17,12,06,25.60
2009,07,17,12,07,25.50
2009,07,17,12,08,25.50
2009,07,17,12,09,25.60
2009,07,17,12,10,25.70
2009,07,17,12,11,25.80
2009,07,17,12,12,25.90
2009,07,17,12,13,26.00
2009,07,17,12,14,26.10
2009,07,17,12,15,26.10
2009,07,17,12,16,26.20
2009,07,17,12,17,26.20
2009,07,17,12,18,26.30
2009,07,17,12,19,26.40
2009,07,17,12,20,26.40
2009,07,17,12,21,26.40
2009,07,17,12,22,26.40
2009,07,17,12,23,26.30
2009,07,17,12,24,26.20
2009,07,17,12,25,26.10
2009,07,17,12,26,26.10
2009,07,17,12,27,26.20
2009,07,17,12,28,26.20
2009,07,17,12,29,26.20
2009,07,17,12,30,26.20
2009,07,17,12,31,26.20
2009,07,17,12,32,26.30
2009,07,17,12,33,26.30
2009,07,17,12,34,26.30
2009,07,17,12,35,26.30
2009,07,17,12,36,26.30
2009,07,17,12,37,26.40
2009,07,17,12,38,26.50
2009,07,17,12,39,26.50
2009,07,17,12,40,26.40
2009,07,17,12,41,26.50
2009,07,17,12,42,26.50
2009,07,17,12,43,26.50
2009,07,17,12,44,26.40
2009,07,17,12,45,26.50
2009,07,17,12,46,26.70
2009,07,17,12,47,26.70
2009,07,17,12,48,26.80
2009,07,17,12,49,26.80
2009,07,17,12,50,26.80
2009,07,17,12,51,26.90
2009,07,17,12,52,27.00
2009,07,17,12,53,27.00
2009,07,17,12,54,27.00
2009,07,17,12,55,27.00
2009,07,17,12,56,27.00
2009,07,17,12,57,27.10
2009,07,17,12,58,27.00
2009,07,17,12,59,26.90
2009,07,17,13,00,26.90
2009,07,17,13,01,26.80
2009,07,17,13,02,26.80
2009,07,17,13,03,26.80
2009,07,17,13,04,26.80
2009,07,17,13,05,26.80
2009,07,17,13,06,26.80
2009,07,17,13,07,26.80
2009,07,17,13,08,26.80
2009,07,17,13,09,26.80
2009,07,17,13,10,26.80
2009,07,17,13,11,26.80
2009,07,17,13,12,26.80
2009,07,17,13,13,26.80
2009,07,17,13,14,26.90
2009,07,17,13,15,26.90
2009,07,17,13,16,26.90
2009,07,17,13,17,27.00
2009,07,17,13,18,27.10
2009,07,17,13,19,27.20
2009,07,17,13,20,27.30
2009,07,17,13,21,27.30
2009,07,17,13,22,27.30
2009,07,17,13,23,27.30
2009,07,17,13,24,27.20
2009,07,17,13,25,27.20
2009,07,17,13,26,27.20
2009,07,17,13,27,27.20
2009,07,17,13,28,27.10
2009,07,17,13,29,27.10
2009,07,17,13,30,27.10
2009,07,17,13,31,27.10
2009,07,17,13,32,27.20
2009,07,17,13,33,27.20
2009,07,17,13,34,27.20
2009,07,17,13,35,27.20
2009,07,17,13,36,27.20
2009,07,17,13,37,27.30
2009,07,17,13,38,27.30
2009,07,17,13,39,27.30
2009,07,17,13,40,27.30
2009,07,17,13,41,27.40
2009,07,17,13,42,27.40
2009,07,17,13,43,27.50
2009,07,17,13,44,27.60
2009,07,17,13,45,27.50
2009,07,17,13,46,27.50
2009,07,17,13,47,27.60
2009,07,17,13,48,27.60
2009,07,17,13,49,27.60
2009,07,17,13,50,27.60
2009,07,17,13,51,27.60
2009,07,17,13,52,27.60
2009,07,17,13,53,27.50
2009,07,17,13,54,27.40
2009,07,17,13,55,27.40
2009,07,17,13,56,27.40
2009,07,17,13,57,27.30
2009,07,17,13,58,27.30
2009,07,17,13,59,27.40
2009,07,17,14,00,27.40
2009,07,17,14,01,27.40
2009,07,17,14,02,27.40
2009,07,17,14,03,27.40
2009,07,17,14,04,27.40
2009,07,17,14,05,27.50
2009,07,17,14,06,27.50
2009,07,17,14,07,27.60
2009,07,17,14,08,27.60
2009,07,17,14,09,27.60
2009,07,17,14,10,27.60
2009,07,17,14,11,27.60
2009,07,17,14,12,27.60
2009,07,17,14,13,27.60
2009,07,17,14,14,27.60
2009,07,17,14,15,27.60
2009,07,17,14,16,27.60
2009,07,17,14,17,27.70
2009,07,17,14,18,27.80
2009,07,17,14,19,27.70
2009,07,17,14,20,27.60
2009,07,17,14,21,27.60
2009,07,17,14,22,27.50
2009,07,17,14,23,27.40
2009,07,17,14,24,27.40
2009,07,17,14,25,27.40
2009,07,17,14,26,27.50
2009,07,17,14,27,27.60
2009,07,17,14,28,27.60
2009,07,17,14,29,27.70
2009,07,17,14,30,27.80
2009,07,17,14,31,27.90
2009,07,17,14,32,27.80
2009,07,17,14,33,27.80
2009,07,17,14,34,27.80
2009,07,17,14,35,27.90
2009,07,17,14,36,28.00
2009,07,17,14,37,28.00
2009,07,17,14,38,27.90
2009,07,17,14,39,27.90
2009,07,17,14,40,28.00
2009,07,17,14,41,27.90
2009,07,17,14,42,28.00
2009,07,17,14,43,28.10
2009,07,17,14,44,28.00
2009,07,17,14,45,28.00
2009,07,17,14,46,27.90
2009,07,17,14,47,27.80
2009,07,17,14,48,27.80
2009,07,17,14,49,27.80
2009,07,17,14,50,28.00
2009,07,17,14,51,28.10
2009,07,17,14,52,28.10
2009,07,17,14,53,28.00
2009,07,17,14,54,27.90
2009,07,17,14,55,27.80
2009,07,17,14,56,27.80
2009,07,17,14,57,27.90
2009,07,17,14,58,28.00
2009,07,17,14,59,28.10
2009,07,17,15,00,28.10
2009,07,17,15,01,28.20
2009,07,17,15,02,28.20
2009,07,17,15,03,28.30
2009,07,17,15,04,28.30
2009,07,17,15,05,28.10
2009,07,17,15,06,28.10
2009,07,17,15,07,28.10
2009,07,17,15,08,28.10
2009,07,17,15,09,28.10
2009,07,17,15,10,28.10
2009,07,17,15,11,28.10
2009,07,17,15,12,28.20
2009,07,17,15,13,28.10
2009,07,17,15,14,28.10
2009,07,17,15,15,28.10
2009,07,17,15,16,28.10
2009,07,17,15,17,28.10
2009,07,17,15,18,28.10
2009,07,17,15,19,28.10
2009,07,17,15,20,28.20
2009,07,17,15,21,28.10
2009,07,17,15,22,28.00
2009,07,17,15,23,27.90
2009,07,17,15,24,27.90
2009,07,17,15,25,28.00
2009,07,17,15,26,28.10
2009,07,17,15,27,28.20
2009,07,17,15,28,28.20
2009,07,17,15,29,28.10
2009,07,17,15,30,28.10
2009,07,17,15,31,28.10
2009,07,17,15,32,28.10
2009,07,17,15,33,28.20
2009,07,17,15,34,28.20
2009,07,17,15,35,28.20
2009,07,17,15,36,28.10
2009,07,17,15,37,27.90
2009,07,17,15,38,27.90
2009,07,17,15,39,27.90
2009,07,17,15,40,27.90
2009,07,17,15,41,27.90
2009,07,17,15,42,28.00
2009,07,17,15,43,28.00
2009,07,17,15,44,27.90
2009,07,17,15,45,27.80
2009,07,17,15,46,27.80
2009,07,17,15,47,28.00
2009,07,17,15,48,28.10
2009,07,17,15,49,28.10
2009,07,17,15,50,28.10
2009,07,17,15,51,28.10
2009,07,17,15,52,28.00
2009,07,17,15,53,28.10
2009,07,17,15,54,28.00
2009,07,17,15,55,28.00
2009,07,17,15,56,27.90
2009,07,17,15,57,27.90
2009,07,17,15,58,27.90
2009,07,17,15,59,28.00
2009,07,17,16,00,28.10
2009,07,17,16,01,28.10
2009,07,17,16,02,28.20
2009,07,17,16,03,28.10
2009,07,17,16,04,28.00
2009,07,17,16,05,27.90
2009,07,17,16,06,27.80
2009,07,17,16,07,27.70
2009,07,17,16,08,27.60
2009,07,17,16,09,27.50
2009,07,17,16,10,27.40
2009,07,17,16,11,27.30
2009,07,17,16,12,27.30
2009,07,17,16,13,27.30
2009,07,17,16,14,27.40
2009,07,17,16,15,27.40
2009,07,17,16,16,27.50
2009,07,17,16,17,27.50
2009,07,17,16,18,27.50
2009,07,17,16,19,27.50
2009,07,17,16,20,27.60
2009,07,17,16,21,27.60
2009,07,17,16,22,27.60
2009,07,17,16,23,27.70
2009,07,17,16,24,27.80
2009,07,17,16,25,27.80
2009,07,17,16,26,27.90
2009,07,17,16,27,28.00
2009,07,17,16,28,28.10
2009,07,17,16,29,28.20
2009,07,17,16,30,28.20
2009,07,17,16,31,28.30
2009,07,17,16,32,28.20
2009,07,17,16,33,28.20
2009,07,17,16,34,28.20
2009,07,17,16,35,28.20
2009,07,17,16,36,28.30
2009,07,17,16,37,28.30
2009,07,17,16,38,28.20
2009,07,17,16,39,28.20
2009,07,17,16,40,28.10
2009,07,17,16,41,28.10
2009,07,17,16,42,28.00
2009,07,17,16,43,28.00
2009,07,17,16,44,27.90
2009,07,17,16,45,27.80
2009,07,17,16,46,27.80
2009,07,17,16,47,27.80
2009,07,17,16,48,27.90
2009,07,17,16,49,27.90
2009,07,17,16,50,27.90
2009,07,17,16,51,27.90
2009,07,17,16,52,27.90
2009,07,17,16,53,27.80
2009,07,17,16,54,27.90
2009,07,17,16,55,27.80
2009,07,17,16,56,27.70
2009,07,17,16,57,27.70
2009,07,17,16,58,27.70
2009,07,17,16,59,27.70
2009,07,17,17,00,27.60
2009,07,17,17,01,27.40
2009,07,17,17,02,27.20
2009,07,17,17,03,27.20
2009,07,17,17,04,27.30
2009,07,17,17,05,27.20
2009,07,17,17,06,27.30
2009,07,17,17,07,27.20
2009,07,17,17,08,27.20
2009,07,17,17,09,27.20
2009,07,17,17,10,27.20
2009,07,17,17,11,27.20
2009,07,17,17,12,27.20
2009,07,17,17,13,27.20
2009,07,17,17,14,27.30
2009,07,17,17,15,27.20
2009,07,17,17,16,27.10
2009,07,17,17,17,27.10
2009,07,17,17,18,27.00
2009,07,17,17,19,27.00
2009,07,17,17,20,27.10
2009,07,17,17,21,27.00
2009,07,17,17,22,27.00
2009,07,17,17,23,27.10
2009,07,17,17,24,27.30